• In Hungary
  • List of Countries
  • For 7 days
  • Water Temperature
  • Satellite Maps
  • Weather Map
  • News
  • Weather Widgets
  • user-avatar
    Login

    Hourly Weather Barletta

    Today, 24 June, Sunday

    Time Temperature Precipitation Wind Pressure Humidity
    00:00 +20°C° 0 mm 4 mps 760 mmHg 50%
    01:00 +20°C° 0 mm 4 mps 760 mmHg 51%
    02:00 +19°C° 0 mm 4 mps 760 mmHg 54%
    03:00 +19°C° 0 mm 4 mps 760 mmHg 56%
    04:00 +19°C° 0 mm 4 mps 760 mmHg 58%
    05:00 +20°C° 0 mm 4 mps 760 mmHg 57%
    06:00 +21°C° 0 mm 4 mps 760 mmHg 57%
    07:00 +22°C° 0 mm 4 mps 760 mmHg 57%
    08:00 +23°C° 0 mm 4 mps 760 mmHg 52%
    09:00 +25°C° 0 mm 4 mps 760 mmHg 48%
    10:00 +27°C° 0 mm 4 mps 761 mmHg 44%
    11:00 +27°C° 0 mm 4 mps 761 mmHg 41%
    12:00 +28°C° 0 mm 4 mps 761 mmHg 39%
    13:00 +29°C° 0 mm 4 mps 761 mmHg 37%
    14:00 +29°C° 0 mm 4 mps 760 mmHg 37%
    15:00 +28°C° 0 mm 4 mps 760 mmHg 38%
    16:00 +28°C° 0 mm 4 mps 760 mmHg 39%
    17:00 +27°C° 0 mm 4 mps 760 mmHg 43%
    18:00 +26°C° 0 mm 3 mps 760 mmHg 47%
    19:00 +24°C° 0 mm 3 mps 759 mmHg 51%
    20:00 +24°C° 0 mm 3 mps 759 mmHg 53%
    21:00 +23°C° 0 mm 2 mps 760 mmHg 56%
    22:00 +21°C° 0 mm 2 mps 760 mmHg 58%
    23:00 +20°C° 0 mm 2 mps 760 mmHg 60%

    Tomorrow, 25 June, Monday

    Time Temperature Precipitation Wind Pressure Humidity
    00:00 +20°C° 0 mm 2 mps 759 mmHg 61%
    01:00 +19°C° 0 mm 2 mps 759 mmHg 63%
    02:00 +19°C° 0 mm 2 mps 759 mmHg 64%
    03:00 +19°C° 0 mm 2 mps 758 mmHg 65%
    04:00 +19°C° 0 mm 2 mps 758 mmHg 67%
    05:00 +20°C° 0 mm 3 mps 758 mmHg 62%
    06:00 +21°C° 0 mm 3 mps 758 mmHg 57%
    07:00 +22°C° 0 mm 3 mps 758 mmHg 53%
    08:00 +24°C° 0.1 mm 3 mps 758 mmHg 49%
    09:00 +26°C° 0.1 mm 3 mps 759 mmHg 45%
    10:00 +27°C° 0.1 mm 3 mps 759 mmHg 41%
    11:00 +28°C° 0 mm 4 mps 759 mmHg 40%
    12:00 +29°C° 0 mm 4 mps 758 mmHg 38%
    13:00 +29°C° 0 mm 4 mps 758 mmHg 37%
    14:00 +29°C° 0 mm 4 mps 758 mmHg 38%
    15:00 +28°C° 0 mm 5 mps 758 mmHg 40%
    16:00 +28°C° 0 mm 5 mps 758 mmHg 41%
    17:00 +27°C° 0 mm 4 mps 758 mmHg 44%
    18:00 +26°C° 0 mm 4 mps 758 mmHg 47%
    19:00 +25°C° 0 mm 4 mps 758 mmHg 50%
    20:00 +23°C° 0 mm 4 mps 758 mmHg 54%
    21:00 +23°C° 0 mm 4 mps 759 mmHg 57%
    22:00 +22°C° 0 mm 4 mps 759 mmHg 61%
    23:00 +21°C° 0 mm 4 mps 759 mmHg 63%

    Day after tomorrow, 26 June, Tuesday

    Time Temperature Precipitation Wind Pressure Humidity
    00:00 +21°C° 0 mm 4 mps 758 mmHg 65%
    01:00 +20°C° 0 mm 4 mps 758 mmHg 67%
    02:00 +20°C° 0.2 mm 4 mps 758 mmHg 69%
    03:00 +20°C° 0.2 mm 4 mps 758 mmHg 71%
    04:00 +20°C° 0.2 mm 4 mps 757 mmHg 72%
    05:00 +21°C° 0.3 mm 5 mps 757 mmHg 69%
    06:00 +22°C° 0.3 mm 5 mps 757 mmHg 66%
    07:00 +23°C° 0.3 mm 5 mps 757 mmHg 63%
    08:00 +25°C° 0.5 mm 5 mps 757 mmHg 59%
    09:00 +26°C° 0.5 mm 5 mps 757 mmHg 55%
    10:00 +27°C° 0.5 mm 5 mps 758 mmHg 50%
    11:00 +27°C° 0.6 mm 5 mps 757 mmHg 50%
    12:00 +27°C° 0.6 mm 5 mps 757 mmHg 50%
    13:00 +27°C° 0.6 mm 4 mps 757 mmHg 49%
    14:00 +27°C° 0.7 mm 5 mps 757 mmHg 51%
    15:00 +27°C° 0.7 mm 5 mps 757 mmHg 53%
    16:00 +26°C° 0.7 mm 5 mps 757 mmHg 56%
    17:00 +25°C° 0.1 mm 5 mps 757 mmHg 58%
    18:00 +24°C° 0.1 mm 6 mps 757 mmHg 60%
    19:00 +23°C° 0.1 mm 6 mps 757 mmHg 63%
    20:00 +22°C° 0.2 mm 6 mps 757 mmHg 66%
    21:00 +22°C° 0.2 mm 6 mps 757 mmHg 70%
    22:00 +21°C° 0.2 mm 6 mps 758 mmHg 73%
    23:00 +21°C° 0.2 mm 5 mps 757 mmHg 74%

    27 June, Wednesday

    Time Temperature Precipitation Wind Pressure Humidity
    00:00 +21°C° 0.2 mm 5 mps 757 mmHg 75%
    01:00 +20°C° 0.2 mm 5 mps 757 mmHg 76%
    02:00 +20°C° 0.3 mm 5 mps 757 mmHg 77%
    03:00 +20°C° 0.3 mm 5 mps 756 mmHg 78%
    04:00 +20°C° 0.3 mm 5 mps 756 mmHg 78%
    05:00 +21°C° 0 mm 6 mps 756 mmHg 76%
    06:00 +22°C° 0 mm 6 mps 756 mmHg 73%
    07:00 +23°C° 0 mm 6 mps 756 mmHg 70%
    08:00 +24°C° 0 mm 7 mps 756 mmHg 65%
    09:00 +26°C° 0 mm 7 mps 756 mmHg 59%
    10:00 +27°C° 0 mm 7 mps 756 mmHg 54%
    11:00 +28°C° 0 mm 7 mps 756 mmHg 52%
    12:00 +28°C° 0 mm 7 mps 756 mmHg 50%
    13:00 +29°C° 0 mm 7 mps 756 mmHg 47%
    14:00 +29°C° 0.2 mm 7 mps 756 mmHg 48%
    15:00 +29°C° 0.2 mm 7 mps 756 mmHg 48%
    16:00 +29°C° 0.2 mm 6 mps 756 mmHg 48%
    17:00 +28°C° 0 mm 6 mps 756 mmHg 51%
    18:00 +27°C° 0 mm 6 mps 756 mmHg 54%
    19:00 +26°C° 0 mm 6 mps 757 mmHg 57%
    20:00 +24°C° 0.1 mm 6 mps 757 mmHg 61%
    21:00 +24°C° 0.1 mm 6 mps 757 mmHg 65%
    22:00 +23°C° 0.1 mm 7 mps 757 mmHg 68%
    23:00 +22°C° 0.2 mm 6 mps 757 mmHg 69%

    28 June, Thursday

    Time Temperature Precipitation Wind Pressure Humidity
    00:00 +22°C° 0.2 mm 6 mps 757 mmHg 70%
    01:00 +22°C° 0.2 mm 5 mps 757 mmHg 71%
    02:00 +22°C° 0.1 mm 5 mps 757 mmHg 72%
    03:00 +21°C° 0.1 mm 5 mps 757 mmHg 72%
    04:00 +21°C° 0.1 mm 5 mps 757 mmHg 73%
    05:00 +22°C° 0.1 mm 5 mps 757 mmHg 70%
    06:00 +23°C° 0.1 mm 5 mps 757 mmHg 66%
    07:00 +24°C° 0.1 mm 6 mps 757 mmHg 63%
    08:00 +27°C° 0 mm 6 mps 757 mmHg 58%
    09:00 +28°C° 0 mm 6 mps 757 mmHg 53%
    10:00 +29°C° 0 mm 6 mps 757 mmHg 48%
    11:00 +30°C° 0 mm 6 mps 757 mmHg 45%
    12:00 +30°C° 0 mm 6 mps 757 mmHg 41%
    13:00 +32°C° 0 mm 6 mps 757 mmHg 37%
    14:00 +30°C° 0 mm 6 mps 757 mmHg 37%
    15:00 +30°C° 0 mm 7 mps 757 mmHg 36%
    16:00 +30°C° 0 mm 7 mps 757 mmHg 36%
    17:00 +29°C° 0 mm 6 mps 757 mmHg 39%
    18:00 +28°C° 0 mm 5 mps 758 mmHg 43%
    19:00 +26°C° 0 mm 5 mps 758 mmHg 46%
    20:00 +26°C° 0 mm 4 mps 758 mmHg 49%
    21:00 +25°C° 0 mm 4 mps 758 mmHg 52%
    22:00 +24°C° 0 mm 3 mps 758 mmHg 55%
    23:00 +22°C° 0 mm 3 mps 758 mmHg 56%

    29 June, Friday

    Time Temperature Precipitation Wind Pressure Humidity
    00:00 +22°C° 0 mm 3 mps 758 mmHg 57%
    01:00 +22°C° 0 mm 3 mps 758 mmHg 58%
    02:00 +22°C° 0 mm 3 mps 758 mmHg 59%
    03:00 +21°C° 0 mm 3 mps 758 mmHg 61%
    04:00 +21°C° 0 mm 3 mps 758 mmHg 62%
    05:00 +24°C° 0 mm 3 mps 758 mmHg 58%
    06:00 +25°C° 0 mm 3 mps 758 mmHg 54%
    07:00 +27°C° 0 mm 2 mps 758 mmHg 50%
    08:00 +28°C° 0 mm 2 mps 758 mmHg 45%
    09:00 +30°C° 0 mm 2 mps 758 mmHg 40%
    10:00 +32°C° 0 mm 2 mps 758 mmHg 35%
    11:00 +34°C° 0 mm 2 mps 758 mmHg 34%
    12:00 +34°C° 0 mm 3 mps 758 mmHg 33%
    13:00 +35°C° 0 mm 4 mps 758 mmHg 32%
    14:00 +34°C° 0 mm 3 mps 758 mmHg 34%
    15:00 +34°C° 0 mm 3 mps 758 mmHg 36%
    16:00 +33°C° 0 mm 3 mps 758 mmHg 38%
    17:00 +31°C° 0 mm 3 mps 758 mmHg 40%
    18:00 +31°C° 0 mm 2 mps 758 mmHg 43%
    19:00 +30°C° 0 mm 2 mps 758 mmHg 46%
    20:00 +29°C° 0 mm 2 mps 758 mmHg 49%
    21:00 +28°C° 0 mm 2 mps 759 mmHg 52%
    22:00 +26°C° 0 mm 1 mps 759 mmHg 55%
    23:00 +26°C° 0 mm 2 mps 759 mmHg 57%
    Show more